TimeEST,TemperatureF,Dew PointF,Humidity,Sea Level PressureIn,VisibilityMPH,Wind Direction,Wind SpeedMPH,Gust SpeedMPH,PrecipitationIn,Events,Conditions,WindDirDegrees,DateUTC
12:15 AM,64.4,60.8,88,29.98,10.0,South,6.9,-,N/A,,Scattered Clouds,180,2013-01-17 05:15:00
12:35 AM,64.4,60.8,88,29.98,10.0,South,3.5,-,N/A,,Mostly Cloudy,180,2013-01-17 05:35:00
12:55 AM,64.4,60.8,88,29.98,10.0,South,6.9,-,N/A,,Overcast,180,2013-01-17 05:55:00
1:15 AM,64.4,60.8,88,29.98,10.0,South,6.9,-,N/A,,Scattered Clouds,190,2013-01-17 06:15:00
1:55 AM,64.4,60.8,88,29.99,10.0,South,3.5,-,N/A,,Clear,190,2013-01-17 06:55:00
2:15 AM,62.6,60.8,94,29.98,10.0,South,3.5,-,N/A,,Clear,190,2013-01-17 07:15:00
2:35 AM,62.6,60.8,94,29.98,10.0,South,3.5,-,N/A,,Clear,190,2013-01-17 07:35:00
2:55 AM,62.6,60.8,94,29.97,10.0,South,4.6,-,N/A,,Clear,190,2013-01-17 07:55:00
3:15 AM,62.6,60.8,94,29.96,10.0,South,3.5,-,N/A,,Clear,180,2013-01-17 08:15:00
3:35 AM,62.6,60.8,94,29.96,10.0,South,3.5,-,N/A,,Clear,180,2013-01-17 08:35:00
3:55 AM,59.0,59.0,100,29.96,10.0,Calm,Calm,-,N/A,,Clear,0,2013-01-17 08:55:00
4:15 AM,59.0,59.0,100,29.96,10.0,Calm,Calm,-,N/A,,Clear,0,2013-01-17 09:15:00
4:35 AM,59.0,59.0,100,29.96,10.0,Calm,Calm,-,N/A,,Clear,0,2013-01-17 09:35:00
4:55 AM,59.0,59.0,100,29.96,10.0,Calm,Calm,-,N/A,,Clear,0,2013-01-17 09:55:00
5:15 AM,59.0,59.0,100,29.96,10.0,Calm,Calm,-,N/A,,Clear,0,2013-01-17 10:15:00
5:35 AM,59.0,59.0,100,29.96,10.0,Calm,Calm,-,N/A,,Clear,0,2013-01-17 10:35:00
5:55 AM,59.0,59.0,100,29.96,10.0,SSE,3.5,-,N/A,,Clear,160,2013-01-17 10:55:00
6:15 AM,59.0,59.0,100,29.96,10.0,SSE,3.5,-,N/A,,Clear,150,2013-01-17 11:15:00
6:35 AM,59.0,59.0,100,29.96,10.0,South,3.5,-,N/A,,Clear,170,2013-01-17 11:35:00
6:55 AM,59.0,59.0,100,29.96,10.0,South,3.5,-,N/A,,Clear,170,2013-01-17 11:55:00
7:15 AM,59.0,59.0,100,29.97,10.0,South,3.5,-,N/A,,Clear,170,2013-01-17 12:15:00
7:35 AM,59.0,59.0,100,29.97,10.0,Calm,Calm,-,N/A,,Clear,0,2013-01-17 12:35:00
7:55 AM,59.0,59.0,100,29.96,10.0,Calm,Calm,-,N/A,,Clear,0,2013-01-17 12:55:00
8:15 AM,60.8,60.8,100,29.96,10.0,SSE,4.6,-,N/A,,Clear,160,2013-01-17 13:15:00
8:35 AM,62.6,60.8,94,29.96,10.0,South,3.5,-,N/A,,Clear,170,2013-01-17 13:35:00
9:15 AM,66.2,60.8,83,29.96,10.0,South,5.8,-,N/A,,Clear,180,2013-01-17 14:15:00
9:35 AM,68.0,60.8,78,29.96,10.0,South,4.6,-,N/A,,Clear,180,2013-01-17 14:35:00
10:15 AM,71.6,60.8,69,29.94,10.0,South,3.5,-,N/A,,Clear,180,2013-01-17 15:15:00
10:55 AM,75.2,60.8,61,29.91,10.0,SSE,6.9,16.1,N/A,,Clear,160,2013-01-17 15:55:00
11:15 AM,77.0,60.8,57,29.90,10.0,South,11.5,17.3,N/A,,Scattered Clouds,180,2013-01-17 16:15:00
11:35 AM,77.0,59.0,54,29.88,10.0,South,6.9,20.7,N/A,,Scattered Clouds,170,2013-01-17 16:35:00
11:55 AM,77.0,59.0,54,29.86,10.0,SSE,13.8,21.9,N/A,,Clear,160,2013-01-17 16:55:00
12:15 PM,77.0,59.0,54,29.85,10.0,South,16.1,23.0,N/A,,Clear,190,2013-01-17 17:15:00
12:35 PM,77.0,59.0,54,29.84,10.0,SSE,13.8,25.3,N/A,,Clear,160,2013-01-17 17:35:00
12:55 PM,77.0,59.0,54,29.83,10.0,South,9.2,24.2,N/A,,Clear,180,2013-01-17 17:55:00
1:15 PM,77.0,59.0,54,29.81,10.0,South,17.3,25.3,N/A,,Clear,180,2013-01-17 18:15:00
1:35 PM,77.0,59.0,54,29.80,10.0,South,10.4,26.5,N/A,,Clear,180,2013-01-17 18:35:00
1:55 PM,77.0,60.8,57,29.77,10.0,South,9.2,18.4,N/A,,Clear,170,2013-01-17 18:55:00
2:15 PM,75.2,60.8,61,29.76,10.0,South,9.2,24.2,N/A,,Mostly Cloudy,180,2013-01-17 19:15:00
2:35 PM,77.0,60.8,57,29.76,10.0,South,12.7,25.3,N/A,,Mostly Cloudy,170,2013-01-17 19:35:00
2:55 PM,73.4,60.8,65,29.76,10.0,South,13.8,21.9,N/A,,Overcast,180,2013-01-17 19:55:00
3:15 PM,73.4,60.8,65,29.75,10.0,South,9.2,25.3,N/A,,Overcast,170,2013-01-17 20:15:00
3:35 PM,71.6,60.8,69,29.74,10.0,South,12.7,25.3,N/A,,Overcast,170,2013-01-17 20:35:00
4:15 PM,60.8,57.2,88,29.78,10.0,WSW,12.7,29.9,N/A,,Overcast,240,2013-01-17 21:15:00
4:35 PM,57.2,55.4,94,29.82,7.0,SW,16.1,26.5,N/A,Rain,Heavy Rain,230,2013-01-17 21:35:00
4:55 PM,55.4,55.4,100,29.84,4.0,SW,11.5,17.3,N/A,Rain,Rain,230,2013-01-17 21:55:00
5:35 PM,53.6,51.8,94,29.86,5.0,WSW,16.1,21.9,N/A,Rain,Light Rain,240,2013-01-17 22:35:00
5:55 PM,51.8,51.8,100,29.87,7.0,SW,9.2,16.1,N/A,Rain,Light Rain,220,2013-01-17 22:55:00
6:15 PM,51.8,48.2,88,29.89,10.0,WSW,13.8,24.2,N/A,,Mostly Cloudy,240,2013-01-17 23:15:00
6:35 PM,50.0,46.4,87,29.90,10.0,WSW,8.1,-,N/A,,Scattered Clouds,250,2013-01-17 23:35:00
6:55 PM,48.2,46.4,93,29.91,10.0,WSW,5.8,-,N/A,,Scattered Clouds,250,2013-01-17 23:55:00
7:15 PM,48.2,46.4,93,29.92,10.0,WSW,5.8,-,N/A,,Clear,240,2013-01-18 00:15:00
7:35 PM,46.4,46.4,100,29.93,10.0,WSW,5.8,-,N/A,,Clear,240,2013-01-18 00:35:00
7:55 PM,46.4,46.4,100,29.95,10.0,WSW,4.6,-,N/A,,Clear,250,2013-01-18 00:55:00
8:15 PM,48.2,46.4,93,29.96,10.0,WSW,8.1,-,N/A,,Mostly Cloudy,250,2013-01-18 01:15:00
8:35 PM,48.2,46.4,93,29.98,10.0,West,11.5,-,N/A,,Overcast,270,2013-01-18 01:35:00
8:55 PM,48.2,44.6,87,29.99,10.0,West,15.0,20.7,N/A,,Mostly Cloudy,260,2013-01-18 01:55:00
9:15 PM,46.4,44.6,93,30.01,10.0,West,8.1,-,N/A,,Mostly Cloudy,260,2013-01-18 02:15:00
9:35 PM,46.4,44.6,93,30.02,10.0,West,11.5,-,N/A,,Overcast,270,2013-01-18 02:35:00
9:55 PM,46.4,41.0,81,30.02,10.0,West,11.5,18.4,N/A,,Scattered Clouds,270,2013-01-18 02:55:00
10:15 PM,46.4,41.0,81,30.03,10.0,West,10.4,16.1,N/A,,Scattered Clouds,270,2013-01-18 03:15:00
10:35 PM,46.4,39.2,76,30.04,10.0,West,13.8,18.4,N/A,,Scattered Clouds,280,2013-01-18 03:35:00
10:55 PM,46.4,39.2,76,30.05,10.0,West,11.5,-,N/A,,Mostly Cloudy,270,2013-01-18 03:55:00